OPS 4682 DEB, 39609

Orbit data source: Space-Track

OPS 4682 DEB, 39609 is space debris in LEO originally from a launch on Sat, 03 Apr 1965 UTC launched from the Air Force Western Test Range (AFWTR). Debris objects in space refer to the collection of defunct objects orbiting the Earth. Examples of debris include non-operational satellites, rocket bodies, and fragments generated from explosions, collisions, or faulty payload assembly.

Loading next visibility...
Identifier
39609, 1965-027FS
Orbit
LEO
Country
Flag of USUS
Related business
Manufacturer
Unknown
Mission
Spacecraft
Bus & Motor
Unknown
Mass
Unknown
Launch date (UTC)
1965-04-03 (61 years ago)
Launch vehicle
Unknown
Launch site
Air Force Western Test Range (AFWTR)
Object type
Payload
Rocket body
Debris
Shape & HBR
Unknown shape, 0.1 m
Radar Cross Section
Small (<0.1 m²)

Expand to show TLE details & history
Last TLE update: 4 days ago

TLE from 4 days ago
0 OPS 4682 DEB
1 39609U 65027FS  25290.70258836  .00000844  00000-0  28563-2 0  9996
2 39609  90.2528   8.9180 0024683 333.4345 180.0502 12.98025965564849
Epoch: 2025-10-17T16:51Z
TLE epoch observation values (Epoch: 2025-10-17T16:51:43.634Z)
Latitude
26.54703°
Longitude
-90.3323°
Altitude
1,291.942 km
Speed
7.204 km/s
True Right ascension
12h 36m 10s
True Declination
26° 25' 10"
Sunlit
Object was in daylight at epoch
Visualization orbit readout
Latitude
Unknown
Longitude
Unknown
Altitude
Unknown
Speed
Unknown
Apparent Right ascension
Unknown
Apparent Declination
Unknown
Sunlit
N/A
Visualization observer readout
Local Sidereal Time
12:40:30
Azimuth
Unknown
Elevation
Unknown
Doppler factor
Unknown
Orbital elements
Apogee altitude
1,285.831 km
Perigee altitude
1,248.09 km
Semi-major axis
7,645.098 km
Eccentricity
0.00247
Inclination
90.2528°
RAAN
8.918°
Arg. of periapsis
333.4345°
True anomaly
180.04995°
Mean anomaly
180.0502°
Eccentric anomaly
180.05008°
Mean motion
3.2469 °/min
Orbital period
110.88 mins
BSTAR
0.0028563
Loading maneuver chart data...
Computing Atmospheric mass density...
Loading historical data...
Loading historical data...
Loading historical data...
Loading historical data...
Loading historical data...
Loading historical data...
Loading historical data...

Documentation

Showing up to 5 results
|